Wind_Speed
11 11 10 8 5 3 7 13 13 10 9 11 10 10 12 11 8 5 6 5 4 5 5 5 5 6 7 8 8 8 8 9 10 11 11 12 11 11 11 13 14 16 17 16 15 14 14 13 12
9 8 7 6 4 5 8 11 9 8 7 7 7 8 10 10 8 7 7 7 6 5 5 6 6 6 6 6 6 6 7 8 9 9 10 10 10 10 10 12 13 15 16 16 15 14 13 13 13
8 7 5 3 3 6 8 9 8 5 5 5 4 5 6 7 6 5 5 6 7 7 8 8 8 8 6 5 5 6 7 8 8 9 9 9 10 10 10 11 13 15 16 17 16 15 14 13 13
9 6 3 3 3 7 8 8 8 7 5 4 4 4 3 4 4 4 4 5 6 8 9 10 10 9 9 8 8 8 9 10 10 10 10 9 10 10 11 12 13 15 16 16 16 15 14 13 13
10 7 4 5 2 7 7 7 7 8 9 6 5 5 5 5 6 7 8 7 7 8 9 10 11 11 11 11 11 12 12 13 13 13 12 11 11 11 12 13 14 15 15 16 15 15 14 13 12
11 9 7 7 3 4 5 5 7 9 11 8 6 6 6 5 6 8 9 9 9 10 10 10 11 12 13 13 14 15 15 16 16 15 14 13 13 13 14 15 15 16 16 16 16 15 14 13 12
12 10 9 8 4 1 1 2 5 9 11 10 7 8 8 7 6 7 9 10 10 11 11 11 11 12 12 13 14 16 17 18 17 16 16 15 15 15 16 16 17 17 17 17 16 16 16 15 13
15 13 11 11 7 1 0 3 7 10 12 11 10 10 9 9 8 7 9 11 11 11 12 12 12 11 12 13 14 15 17 18 18 18 17 16 16 16 17 18 18 19 18 18 17 17 17 17 16
17 17 15 15 13 6 2 4 9 12 14 14 12 12 11 11 10 7 7 10 11 11 11 12 12 12 12 13 14 15 16 18 18 18 18 17 18 18 19 19 20 20 19 18 18 17 17 18 18
17 19 19 18 16 11 5 5 9 14 18 20 19 18 15 14 13 9 8 10 12 12 12 13 14 15 15 15 16 16 17 18 19 19 20 20 20 20 21 21 21 21 20 19 18 18 18 18 18
18 20 21 21 19 14 10 8 11 17 22 24 24 24 22 19 16 16 15 14 15 16 16 18 20 20 20 19 20 20 20 20 21 22 23 23 23 24 24 24 24 23 22 21 20 18 18 18 18
22 22 23 23 21 18 14 13 14 18 24 27 28 29 28 26 23 22 21 20 21 21 20 21 23 25 26 25 25 26 25 25 25 25 26 27 27 27 27 28 28 27 25 23 22 21 20 19 19
25 25 25 23 22 21 20 20 20 20 25 30 32 33 33 32 30 26 24 24 24 24 24 24 24 26 29 30 29 30 30 30 30 29 29 30 30 30 30 30 30 29 29 27 25 24 23 23 22
29 27 24 22 22 23 25 25 25 23 25 31 34 35 36 36 35 32 29 27 27 28 28 29 28 29 31 33 34 33 33 33 33 33 34 34 33 33 34 34 33 32 31 30 28 27 26 25 25
31 28 26 24 24 25 28 28 27 24 25 30 33 36 38 38 38 37 35 34 33 33 34 35 34 34 35 37 39 38 37 36 36 36 36 36 36 36 37 37 36 35 34 33 31 30 29 28 28
31 30 28 26 27 27 29 29 26 25 25 27 30 33 36 38 39 40 40 39 38 37 37 38 38 37 38 39 40 42 41 39 38 37 37 37 38 38 39 40 39 39 38 36 34 32 32 32 33
31 30 27 25 27 28 29 29 26 26 25 26 29 32 36 38 39 40 39 39 38 37 36 36 35 36 36 37 38 38 39 39 39 39 39 39 39 39 40 40 40 41 40 39 37 36 35 35 36
27 26 22 21 23 24 25 25 24 24 25 26 29 32 35 37 38 37 37 37 37 36 35 36 36 36 37 36 36 37 37 38 38 39 39 40 40 40 40 40 40 42 42 41 40 38 37 37 38
21 20 19 20 22 22 23 25 25 26 26 29 32 34 35 35 35 35 35 36 36 36 38 38 38 38 38 39 39 38 38 38 38 38 39 40 41 41 42 41 42 43 42 42 41 40 38 37 38
15 17 21 24 25 25 25 27 28 29 29 32 35 35 34 33 33 32 33 35 34 37 38 37 38 38 39 39 40 41 40 40 40 40 40 40 41 42 43 43 43 43 43 42 40 40 39 37 38
15 19 21 23 24 27 30 31 31 33 35 36 36 34 31 30 30 31 32 33 34 35 37 37 37 37 37 37 38 39 40 39 39 39 39 40 41 42 43 44 44 44 44 43 42 42 41 39 38
17 19 19 19 22 26 31 34 33 33 33 32 29 28 26 27 29 31 32 32 33 35 35 35 36 36 36 37 38 38 38 38 37 36 36 37 38 39 40 41 42 43 43 42 41 41 41 39 38
16 16 16 16 17 19 22 25 21 21 20 21 22 23 23 24 27 30 30 32 32 33 34 34 36 38 38 38 38 39 40 39 38 37 36 35 35 36 37 38 39 40 41 41 41 41 41 40 38
9 10 9 11 11 12 13 15 13 14 14 16 18 20 22 25 27 28 30 31 32 32 33 34 36 38 40 40 40 40 41 41 41 40 39 38 37 37 37 38 39 40 41 41 42 42 42 41 41
5 5 5 7 9 9 12 15 15 16 18 19 22 24 26 28 29 29 30 31 33 33 34 35 36 37 38 39 40 41 42 42 43 42 42 40 40 39 39 40 40 41 42 43 44 44 43 43 43
4 6 5 5 5 6 10 15 17 19 21 24 26 28 29 29 30 31 32 34 35 36 37 37 38 39 39 39 40 41 41 42 43 44 44 43 43 42 42 42 43 43 44 45 45 45 45 44 44
7 7 9 10 9 8 10 15 20 22 25 26 27 28 28 30 31 33 35 36 37 37 38 39 40 41 41 41 41 41 41 41 42 43 44 44 44 44 44 44 44 44 45 45 45 44 43 43 42
10 10 12 13 14 11 8 10 17 21 24 25 27 29 31 33 34 35 36 37 37 37 38 39 40 40 41 41 41 40 39 39 40 40 41 42 43 43 43 43 43 43 42 42 42 41 40 39 38
11 12 13 14 15 17 15 12 18 21 23 25 27 30 32 33 35 35 36 37 37 37 37 39 40 41 41 41 41 39 38 37 36 37 38 39 40 41 41 41 41 40 39 37 36 36 34 33 32
11 14 15 17 18 20 21 21 22 24 26 28 30 32 34 36 37 37 38 39 39 38 38 38 39 40 41 41 40 39 37 35 35 35 36 37 37 37 37 37 36 34 33 32 31 31 29 28 27
Wind_Direction
129 124 107 99 92 99 87 78 72 60 51 60 63 60 55 57 62 52 42 48 44 50 40 28 19 18 18 20 20 23 24 23 20 15 12 12 14 18 18 17 14 12 12 11 11 14 15 15 13
148 141 108 92 71 88 77 70 65 65 57 59 64 66 65 55 50 40 40 30 13 8 358 351 350 356 3 9 12 12 9 7 8 6 3 4 5 6 6 6 5 5 5 5 5 6 9 11 11
165 152 119 122 106 87 73 65 53 46 54 46 40 54 59 55 38 26 33 23 2 351 340 336 334 334 334 335 336 335 337 341 345 347 348 350 351 350 351 351 352 354 354 355 356 358 1 5 7
184 173 161 197 141 90 73 55 33 357 354 6 353 2 2 10 352 332 339 347 340 338 332 328 326 324 321 317 313 313 316 319 322 326 330 334 336 336 335 337 338 340 343 345 346 348 351 355 360
195 187 203 240 151 96 72 41 19 336 322 333 332 332 324 328 321 316 313 316 321 322 321 319 316 315 313 310 307 306 307 309 311 314 317 321 323 325 325 326 327 328 330 332 333 335 337 341 346
195 194 222 238 183 103 81 22 346 316 312 315 311 302 300 306 304 304 303 304 311 311 309 309 307 307 308 307 307 305 305 306 308 308 310 313 316 319 320 321 323 323 323 323 323 322 323 326 329
190 195 221 220 190 144 73 320 313 306 304 306 308 299 299 297 297 302 301 300 303 302 301 302 303 304 305 308 309 308 307 306 306 306 307 309 312 316 320 322 324 324 323 321 318 315 312 311 313
189 193 212 217 203 176 259 289 299 303 303 298 295 291 298 303 303 309 306 301 302 301 299 299 298 297 299 303 306 308 308 306 304 304 306 307 310 314 317 320 323 325 325 323 319 315 310 306 304
197 202 216 228 234 236 227 263 282 293 296 298 296 292 295 299 302 305 311 308 308 305 302 303 301 296 295 297 300 302 304 303 302 301 301 304 306 310 314 316 318 320 322 322 321 317 312 307 303
202 206 222 236 247 259 250 240 274 294 300 303 302 298 296 300 302 298 301 297 300 303 302 301 301 298 296 295 295 295 297 297 297 298 298 299 300 303 307 310 312 314 316 317 317 315 311 307 302
209 208 225 240 251 265 275 266 279 293 299 301 300 299 300 299 298 296 298 292 290 291 293 295 296 295 295 295 293 291 289 289 291 293 295 296 296 298 301 303 304 305 308 309 309 308 306 303 299
220 217 226 240 251 262 275 281 280 287 293 294 295 296 296 295 294 294 295 294 292 289 288 289 292 293 292 291 290 289 287 286 286 288 290 291 292 294 296 298 299 301 302 302 301 301 298 297 294
236 233 236 246 260 269 274 276 276 281 286 288 290 292 294 294 295 294 293 294 292 291 289 287 285 286 287 287 286 286 286 286 286 285 285 285 287 288 290 291 292 293 294 295 295 296 297 294 292
244 245 248 252 258 264 267 268 271 274 275 279 283 286 289 291 294 296 295 295 293 290 288 285 282 281 282 281 280 279 280 281 282 283 283 283 283 284 285 285 285 286 286 288 290 290 290 290 288
247 252 255 257 258 261 265 268 271 271 270 274 280 284 287 291 294 297 298 299 297 293 290 287 283 282 280 279 279 278 277 276 276 276 277 278 278 278 279 279 280 280 281 283 285 285 284 286 285
246 251 254 255 256 257 261 266 269 270 272 276 281 284 287 290 293 296 298 300 299 296 292 287 285 285 283 281 280 280 280 279 278 277 275 273 272 272 273 274 274 275 277 278 280 281 282 284 286
245 249 251 250 253 254 258 264 267 271 277 279 280 282 285 288 290 293 297 299 299 299 295 292 287 285 284 282 281 281 280 279 278 277 275 274 273 272 272 273 274 273 274 275 278 279 280 282 285
243 245 245 240 245 252 258 262 264 268 272 276 279 280 282 283 286 292 297 300 300 301 298 296 291 288 286 284 282 280 279 278 276 276 275 274 275 274 274 275 276 277 276 275 276 276 278 281 281
236 238 236 235 239 241 245 251 256 261 266 274 279 279 279 280 284 291 296 299 299 298 298 297 294 290 287 284 283 281 279 277 276 275 274 274 275 275 276 276 277 279 280 281 279 279 282 283 283
226 228 227 228 235 240 245 252 258 263 267 274 277 277 278 281 287 293 296 299 298 297 296 296 293 290 288 286 284 281 279 277 276 275 274 273 274 275 276 277 278 280 281 282 282 282 284 283 283
238 240 240 238 239 245 250 254 261 267 271 275 275 276 277 281 286 290 294 297 296 296 295 294 292 291 290 289 287 285 283 281 278 276 276 275 274 274 275 276 277 278 278 280 281 282 283 283 283
255 259 262 259 249 246 252 259 262 267 271 273 273 272 276 283 287 290 294 297 296 296 296 295 293 291 290 289 288 287 287 286 284 282 280 278 277 276 275 276 276 277 278 279 280 281 282 281 281
267 270 271 268 259 253 252 260 267 271 277 277 278 279 287 294 295 296 298 298 299 299 297 297 295 293 291 290 288 287 287 286 286 285 285 283 282 280 279 279 279 279 280 280 281 280 281 280 280
274 273 269 265 264 255 256 263 274 282 292 294 294 295 296 300 301 302 303 303 304 304 304 303 300 296 293 291 289 287 285 284 284 284 284 284 284 283 282 282 282 282 282 282 282 281 281 280 280
301 296 276 262 269 274 275 280 286 291 297 300 300 301 304 306 309 311 311 311 314 316 316 312 309 305 300 295 292 289 286 283 282 282 282 283 283 283 283 283 283 283 282 281 281 280 280 279 278
327 321 320 314 304 293 279 282 288 292 297 299 302 305 310 313 315 317 319 321 323 324 323 320 318 316 312 306 300 295 290 286 284 283 282 282 282 283 283 284 284 284 282 281 280 279 278 277 277
295 304 314 317 317 311 295 291 291 293 296 300 305 310 317 321 323 324 325 324 325 325 324 322 321 319 317 314 309 303 296 291 288 285 284 284 284 285 285 285 284 284 282 280 279 277 275 274 274
284 292 299 305 310 308 303 303 302 298 300 303 309 316 321 322 322 322 322 322 322 323 322 319 318 318 317 316 313 308 303 297 292 289 287 287 287 286 286 285 284 284 282 279 277 275 272 271 271
295 302 305 307 312 315 316 313 303 301 303 309 314 317 317 317 317 317 317 316 317 318 317 315 316 316 317 316 315 312 307 302 297 293 291 289 288 288 287 286 285 283 279 276 273 270 267 264 264
302 306 305 304 308 310 311 310 304 306 310 315 317 315 314 314 313 313 312 311 313 314 313 313 313 314 315 315 315 313 309 304 299 296 294 293 291 290 289 287 286 282 277 271 268 263 258 256 254
Height
5935 5935 5934 5935 5936 5936 5934 5933 5934 5934 5935 5936 5935 5935 5935 5935 5935 5936 5935 5933 5932 5932 5932 5932 5932 5931 5931 5930 5929 5929 5928 5927 5926 5926 5925 5924 5923 5922 5920 5919 5917 5916 5914 5912 5911 5909 5907 5905 5904
5935 5935 5935 5936 5936 5935 5934 5934 5934 5936 5936 5936 5937 5937 5937 5936 5935 5935 5934 5934 5934 5934 5933 5933 5933 5932 5932 5931 5930 5929 5928 5927 5926 5926 5925 5924 5923 5922 5921 5919 5918 5916 5915 5913 5911 5909 5908 5906 5904
5935 5935 5936 5936 5935 5934 5934 5934 5934 5936 5937 5937 5937 5937 5938 5937 5936 5935 5936 5935 5935 5935 5934 5934 5934 5933 5933 5932 5931 5930 5929 5927 5926 5925 5925 5924 5923 5922 5921 5919 5918 5916 5915 5913 5911 5910 5908 5906 5904
5935 5936 5937 5937 5934 5934 5933 5933 5934 5934 5936 5937 5936 5937 5938 5938 5936 5935 5935 5935 5935 5934 5934 5934 5934 5933 5933 5932 5931 5930 5929 5927 5926 5925 5924 5923 5923 5922 5920 5919 5918 5917 5915 5913 5911 5910 5908 5906 5905
5936 5936 5937 5936 5934 5932 5931 5931 5932 5934 5935 5936 5936 5936 5937 5937 5935 5934 5934 5934 5934 5934 5933 5933 5933 5933 5932 5932 5931 5930 5928 5927 5926 5925 5924 5923 5922 5921 5920 5918 5917 5916 5915 5913 5911 5909 5908 5906 5905
5936 5936 5936 5934 5933 5932 5932 5931 5931 5933 5934 5935 5936 5936 5936 5937 5936 5934 5933 5933 5933 5932 5932 5932 5932 5931 5931 5930 5930 5929 5927 5926 5925 5924 5923 5922 5921 5920 5918 5917 5916 5915 5913 5912 5910 5908 5907 5906 5905
5935 5935 5933 5932 5932 5932 5932 5932 5932 5932 5933 5934 5935 5934 5934 5936 5936 5934 5931 5931 5932 5931 5931 5930 5930 5930 5929 5929 5928 5927 5926 5925 5924 5923 5922 5920 5919 5918 5917 5916 5914 5913 5912 5910 5909 5907 5906 5904 5903
5932 5933 5931 5930 5929 5930 5932 5931 5931 5931 5931 5932 5933 5933 5933 5934 5935 5934 5932 5930 5931 5930 5929 5929 5928 5928 5927 5926 5926 5925 5924 5922 5921 5920 5919 5918 5917 5916 5915 5913 5912 5911 5909 5908 5907 5905 5904 5902 5902
5930 5931 5928 5928 5928 5929 5931 5931 5930 5930 5929 5930 5931 5931 5932 5932 5933 5934 5934 5931 5930 5929 5928 5927 5926 5926 5925 5924 5923 5922 5921 5920 5919 5918 5917 5916 5914 5913 5912 5910 5909 5907 5906 5905 5904 5902 5901 5900 5899
5929 5929 5927 5927 5927 5928 5929 5930 5929 5928 5927 5927 5928 5928 5929 5930 5930 5932 5933 5932 5930 5928 5927 5926 5924 5923 5922 5921 5920 5919 5918 5916 5915 5914 5913 5912 5911 5909 5908 5907 5905 5904 5903 5902 5900 5899 5898 5897 5896
5926 5927 5926 5926 5926 5928 5929 5930 5929 5927 5924 5924 5924 5924 5925 5926 5927 5927 5928 5930 5929 5927 5925 5923 5921 5920 5919 5918 5916 5915 5914 5913 5912 5910 5909 5908 5907 5905 5903 5902 5901 5900 5899 5898 5897 5895 5894 5893 5892
5922 5923 5923 5924 5925 5926 5927 5928 5928 5926 5922 5921 5920 5920 5920 5921 5923 5923 5923 5924 5924 5923 5922 5920 5917 5915 5914 5913 5912 5910 5909 5908 5907 5906 5904 5903 5902 5900 5899 5897 5895 5894 5893 5893 5892 5890 5889 5888 5887
5919 5920 5921 5923 5925 5925 5925 5925 5925 5924 5920 5916 5915 5915 5915 5915 5917 5918 5918 5918 5918 5918 5917 5916 5914 5911 5909 5907 5906 5904 5903 5902 5901 5900 5899 5897 5895 5894 5893 5892 5890 5889 5888 5887 5886 5885 5883 5882 5881
5914 5916 5919 5922 5922 5921 5920 5920 5920 5921 5918 5913 5911 5911 5910 5910 5911 5911 5912 5912 5911 5910 5909 5909 5907 5905 5903 5900 5898 5897 5896 5895 5894 5892 5891 5889 5888 5886 5885 5884 5883 5882 5881 5880 5879 5878 5877 5876 5875
5910 5913 5916 5917 5916 5915 5914 5915 5915 5915 5913 5910 5908 5907 5905 5905 5904 5904 5904 5904 5903 5901 5900 5898 5896 5895 5894 5891 5889 5888 5888 5887 5886 5885 5884 5882 5881 5879 5877 5876 5875 5874 5873 5872 5871 5871 5870 5869 5868
5905 5908 5910 5910 5909 5909 5909 5908 5909 5908 5908 5906 5904 5902 5900 5899 5898 5897 5896 5895 5894 5893 5890 5887 5885 5884 5882 5881 5878 5876 5876 5876 5876 5875 5874 5873 5872 5870 5869 5866 5865 5863 5862 5862 5862 5861 5860 5860 5858
5899 5901 5902 5904 5903 5903 5903 5902 5902 5902 5903 5902 5901 5898 5896 5894 5893 5891 5890 5888 5886 5884 5881 5877 5874 5872 5871 5870 5868 5866 5865 5864 5864 5863 5862 5861 5861 5860 5858 5856 5853 5851 5850 5851 5851 5851 5850 5849 5848
5893 5894 5896 5897 5897 5897 5897 5896 5897 5897 5898 5897 5896 5894 5891 5890 5888 5886 5885 5882 5879 5876 5872 5868 5866 5863 5861 5859 5858 5857 5855 5855 5854 5853 5852 5850 5849 5848 5847 5845 5843 5839 5838 5839 5839 5839 5838 5838 5837
5888 5890 5891 5891 5890 5891 5891 5891 5891 5891 5892 5890 5888 5887 5885 5885 5884 5883 5881 5878 5874 5870 5866 5861 5858 5856 5853 5851 5850 5848 5847 5846 5845 5844 5842 5841 5839 5838 5836 5835 5833 5831 5829 5828 5827 5827 5827 5827 5826
5883 5884 5884 5885 5885 5886 5886 5886 5885 5885 5885 5883 5881 5880 5879 5879 5878 5878 5875 5872 5868 5864 5860 5855 5852 5848 5845 5842 5840 5838 5837 5836 5835 5834 5833 5831 5830 5828 5826 5824 5823 5821 5819 5818 5817 5817 5817 5817 5816
5879 5879 5879 5881 5882 5882 5881 5881 5880 5879 5878 5877 5876 5874 5874 5873 5872 5870 5868 5865 5862 5857 5853 5849 5845 5840 5837 5833 5830 5828 5826 5825 5824 5823 5822 5821 5819 5817 5815 5814 5812 5811 5810 5809 5809 5808 5807 5807 5806
5875 5875 5875 5876 5876 5877 5876 5874 5875 5873 5872 5870 5869 5869 5868 5866 5865 5863 5861 5858 5854 5850 5845 5840 5836 5832 5828 5825 5822 5819 5817 5815 5813 5812 5811 5810 5808 5806 5805 5803 5802 5800 5799 5799 5799 5798 5797 5797 5796
5870 5870 5870 5870 5869 5869 5869 5868 5869 5866 5865 5864 5863 5862 5861 5859 5858 5856 5854 5851 5847 5842 5837 5832 5827 5823 5819 5816 5814 5811 5808 5806 5804 5802 5801 5800 5798 5796 5794 5792 5791 5790 5789 5788 5788 5787 5787 5787 5786
5866 5866 5866 5865 5864 5865 5864 5863 5863 5860 5859 5858 5857 5856 5854 5853 5851 5849 5846 5842 5838 5833 5828 5823 5818 5814 5810 5807 5804 5801 5799 5796 5794 5792 5790 5789 5788 5786 5784 5782 5781 5780 5778 5777 5777 5776 5776 5776 5775
5864 5864 5864 5863 5862 5862 5860 5858 5857 5855 5854 5852 5850 5849 5847 5845 5842 5840 5836 5832 5827 5823 5818 5814 5809 5804 5800 5796 5793 5790 5788 5785 5783 5781 5779 5778 5777 5775 5774 5772 5770 5769 5767 5766 5765 5765 5764 5764 5764
5862 5862 5862 5861 5859 5858 5856 5853 5852 5849 5847 5845 5843 5841 5839 5836 5833 5830 5826 5822 5818 5814 5809 5804 5800 5795 5790 5786 5782 5779 5776 5773 5771 5769 5767 5766 5765 5764 5762 5760 5759 5757 5756 5754 5753 5753 5752 5752 5752
5860 5859 5859 5858 5856 5855 5853 5850 5847 5844 5842 5839 5837 5835 5832 5829 5826 5822 5818 5814 5810 5806 5802 5797 5792 5787 5782 5777 5772 5768 5764 5761 5759 5757 5755 5753 5752 5751 5749 5748 5746 5744 5743 5741 5740 5740 5740 5740 5740
5858 5857 5856 5855 5852 5851 5850 5848 5844 5840 5837 5835 5832 5830 5827 5823 5819 5815 5812 5808 5804 5800 5796 5791 5786 5780 5775 5769 5763 5758 5754 5750 5747 5745 5743 5741 5739 5738 5736 5734 5732 5731 5729 5728 5727 5727 5727 5728 5729
5855 5854 5852 5850 5849 5846 5845 5846 5840 5836 5834 5831 5828 5825 5822 5818 5814 5810 5806 5802 5798 5794 5790 5784 5779 5773 5767 5762 5756 5750 5745 5741 5737 5735 5732 5730 5728 5725 5723 5721 5719 5718 5716 5715 5715 5715 5716 5717 5719
5852 5850 5848 5847 5845 5842 5840 5841 5834 5831 5828 5825 5822 5819 5815 5811 5807 5803 5799 5794 5791 5787 5782 5777 5771 5766 5760 5754 5748 5742 5737 5733 5729 5725 5723 5720 5717 5714 5712 5709 5707 5705 5704 5704 5703 5704 5706 5708 5710